FW5813 Weather Reports


Display with metric or nautical units.
time (UTC)temp
F
wind
direction
speed
MPH
gust
MPH
rain 1hr
in
rain 24hr
in
rain mn
in
humidity
%
barometer
mb
20260503004537 42 309 0.0 0.0 0.00 0.00 0.00 80 1017.8
20260503004038 42 309 0.0 0.0 0.00 0.00 0.00 79 1017.9
20260503003537 42 309 0.0 0.0 0.00 0.00 0.00 79 1018.2
20260503003038 43 309 0.0 0.0 0.00 0.00 0.00 78 1018.1
20260503002539 43 309 0.0 0.0 0.00 0.00 0.00 78 1018.1
20260503002037 43 309 0.0 0.0 0.00 0.00 0.00 78 1018.1
20260503001538 43 309 0.0 0.0 0.00 0.00 0.00 78 1018.2
20260503001051 43 309 0.0 0.0 0.00 0.00 0.00 77 1018.2
20260503000537 43 309 0.0 0.0 0.00 0.00 0.00 77 1018.2
20260503000050 43 309 0.0 0.0 0.00 0.00 0.00 78 1018.1
20260502235537 43 309 0.0 0.0 0.00 0.00 0.00 79 1018.6
20260502235037 42 309 0.0 0.0 0.00 0.00 0.00 78 1018.6
20260502234538 43 309 0.0 0.0 0.00 0.00 0.00 78 1018.2
20260502234037 43 309 0.0 0.0 0.00 0.00 0.00 79 1018.4
20260502233538 43 309 0.0 0.0 0.00 0.00 0.00 79 1018.5
20260502232538 44 309 0.0 0.0 0.00 0.00 0.00 79 1018.5
20260502232038 44 309 0.0 0.0 0.00 0.00 0.00 79 1018.5
20260502231539 44 309 0.0 0.0 0.00 0.00 0.00 78 1018.6
20260502231051 44 309 0.0 0.0 0.00 0.00 0.00 77 1018.4
20260502230537 44 310 0.0 0.0 0.00 0.00 0.00 78 1018.3
20260502230050 44 309 0.0 0.0 0.00 0.00 0.00 78 1018.4
20260502225538 44 310 0.0 0.0 0.00 0.00 0.00 77 1018.5
20260502225039 45 310 0.0 0.0 0.00 0.00 0.00 76 1018.7
20260502224538 45 309 0.0 0.0 0.00 0.00 0.00 76 1018.7
20260502224037 45 310 0.0 0.0 0.00 0.00 0.00 74 1018.6
20260502223537 46 310 0.0 0.0 0.00 0.00 0.00 74 1018.4
20260502223038 45 310 0.0 0.0 0.00 0.00 0.00 74 1018.8
20260502222537 46 310 0.0 0.0 0.00 0.00 0.00 74 1018.8
20260502222051 46 310 0.0 0.0 0.00 0.00 0.00 73 1018.8
20260502221538 46 310 0.0 0.0 0.00 0.00 0.00 73 1018.9
20260502221037 46 310 0.0 0.0 0.00 0.00 0.00 73 1018.5
20260502220537 46 310 0.0 0.0 0.00 0.00 0.00 72 1018.9
20260502220038 46 310 0.0 0.0 0.00 0.00 0.00 72 1019.1
20260502215537 46 310 0.0 0.0 0.00 0.00 0.00 72 1018.8
20260502215038 47 310 0.0 0.0 0.00 0.00 0.00 71 1019.0
20260502214537 47 310 0.0 0.0 0.00 0.00 0.00 71 1018.7
20260502214038 47 310 0.0 0.0 0.00 0.00 0.00 71 1018.9
20260502213537 47 310 0.0 0.0 0.00 0.00 0.00 70 1018.7
20260502213037 47 310 0.0 0.0 0.00 0.00 0.00 71 1018.7
20260502211537 48 310 0.0 0.0 0.00 0.00 0.00 69 1018.9
20260502211038 48 310 0.0 0.0 0.00 0.00 0.00 69 1018.9
20260502210536 48 310 0.0 0.0 0.00 0.00 0.00 69 1018.9
20260502205537 49 310 0.0 0.0 0.00 0.00 0.00 69 1019.3
20260502205037 49 310 0.0 0.0 0.00 0.00 0.00 68 1018.8
20260502204038 49 310 0.0 0.0 0.00 0.00 0.00 69 1019.1
20260502203537 50 310 0.0 0.0 0.00 0.00 0.00 69 1019.0
20260502203038 50 310 0.0 0.0 0.00 0.00 0.00 68 1019.1
20260502202037 50 310 0.0 0.0 0.00 0.00 0.00 68 1019.1
20260502201037 51 310 0.0 0.0 0.00 0.00 0.00 65 1019.1
20260502200537 51 310 0.0 0.0 0.00 0.00 0.00 66 1019.1
20260502200050 51 310 0.0 0.0 0.00 0.00 0.00 63 1019.0
20260502195538 51 310 0.0 0.0 0.00 0.00 0.00 64 1019.2
20260502194036 52 310 0.0 0.0 0.00 0.00 0.00 65 1019.5
20260502193537 52 310 0.0 0.0 0.00 0.00 0.00 65 1019.3
20260502193037 53 310 0.0 0.0 0.00 0.00 0.00 64 1019.5
20260502192537 53 310 0.0 0.0 0.00 0.00 0.00 63 1019.4
20260502192035 53 310 0.0 0.0 0.00 0.00 0.00 63 1019.3
20260502191536 54 310 0.0 0.0 0.00 0.00 0.00 62 1019.2
20260502191035 54 310 0.0 0.0 0.00 0.00 0.00 61 1019.4
20260502190536 54 310 0.0 0.0 0.00 0.00 0.00 61 1019.1
20260502190035 55 310 0.0 0.0 0.00 0.00 0.00 61 1019.1
20260502185535 55 310 0.0 0.0 0.00 0.00 0.00 60 1019.1
20260502185034 56 310 0.0 0.0 0.00 0.00 0.00 60 1019.1
20260502184535 56 310 0.0 0.0 0.00 0.00 0.00 59 1019.1
20260502184035 57 310 0.0 0.0 0.00 0.00 0.00 58 1019.3
20260502183536 57 310 0.0 0.0 0.00 0.00 0.00 58 1018.8
20260502182035 60 310 0.0 0.0 0.00 0.00 0.00 56 1019.3
20260502181535 61 310 0.0 0.0 0.00 0.00 0.00 54 1018.8
20260502180523 63 311 0.0 0.0 0.00 0.00 0.00 53 1018.9
20260502170502 76 312 0.0 0.0 0.00 0.00 0.00 27 1019.0
20260502164002 81 312 0.0 0.0 0.00 0.00 0.00 22 1019.1
20260502163500 81 313 0.0 0.0 0.00 0.00 0.00 22 1019.3
20260502163000 82 312 0.0 0.0 0.00 0.00 0.00 24 1019.2
20260502161959 80 312 0.0 0.0 0.00 0.00 0.00 23 1019.5
20260502161500 81 313 0.0 0.0 0.00 0.00 0.00 26 1019.3
20260502160959 80 312 0.0 2.0 0.00 0.00 0.00 25 1019.4
20260502151944 77 359 2.0 2.0 0.00 0.00 0.00 26 1020.1
20260502150944 77 359 2.0 4.0 0.00 0.00 0.00 26 1020.0
20260502130434 78 3 1.0 2.0 0.00 0.00 0.00 27 1021.6
20260502123403 78 3 1.0 2.0 0.00 0.00 0.00 27 1021.9
20260502122905 78 3 1.0 4.0 0.00 0.00 0.00 27 1021.8
20260502122404 78 3 1.0 4.0 0.00 0.00 0.00 27 1022.0
20260502121903 74 136 4.0 4.0 0.00 0.00 0.00 29 1021.9
20260502121403 79 330 0.0 0.0 0.00 0.00 0.00 30 1022.1
20260502120903 77 330 0.0 0.0 0.00 0.00 0.00 28 1022.1
20260502120402 77 330 0.0 0.0 0.00 0.00 0.00 27 1022.1
20260502115903 76 330 0.0 0.0 0.00 0.00 0.00 26 1022.2
20260502115402 77 330 0.0 0.0 0.00 0.00 0.00 27 1022.3
20260502114903 78 330 0.0 0.0 0.00 0.00 0.00 30 1022.2
20260502114403 78 330 0.0 0.0 0.00 0.00 0.00 30 1022.3
20260502113903 79 329 0.0 7.0 0.00 0.00 0.00 27 1022.7
20260502113357 78 343 0.0 7.0 0.00 0.00 0.00 26 1022.8
20260502112858 77 358 6.0 7.0 0.00 0.00 0.00 29 1022.9
20260502112357 74 358 6.0 7.0 0.00 0.00 0.00 31 1022.6
20260502111858 74 358 6.0 7.0 0.00 0.00 0.00 31 1022.7
20260502111357 74 358 6.0 7.0 0.00 0.00 0.00 31 1022.9
20260502110857 74 358 6.0 7.0 0.00 0.00 0.00 31 1022.9
20260502110352 74 358 6.0 7.0 0.00 0.00 0.00 31 1022.9
20260502105851 74 358 6.0 7.0 0.00 0.00 0.00 31 1023.1
20260502105347 74 358 6.0 7.0 0.00 0.00 0.00 31 1023.0
20260502104349 74 358 6.0 7.0 0.00 0.00 0.00 31 1023.2
20260502103844 74 358 6.0 7.0 0.00 0.00 0.00 31 1023.3
20260502103341 74 358 6.0 7.0 0.00 0.00 0.00 31 1023.3
20260502102842 74 358 6.0 8.0 0.00 0.00 0.00 31 1023.5
20260502102341 74 351 2.0 8.0 0.00 0.00 0.00 32 1023.5
20260502101841 73 13 3.0 6.0 0.00 0.00 0.00 34 1023.6
20260502100840 76 170 1.0 6.0 0.00 0.00 0.00 31 1023.7
20260502100340 75 282 2.0 4.0 0.00 0.00 0.00 32 1023.8
20260502091423 72 88 3.0 5.0 0.00 0.00 0.00 37 1024.2
20260502090841 72 69 2.0 5.0 0.00 0.00 0.00 34 1024.4
20260502071340 63 19 1.0 4.0 0.00 0.00 0.00 49 1024.9
20260502070839 65 11 2.0 3.0 0.00 0.00 0.00 46 1025.0
20260502070341 64 186 0.0 3.0 0.00 0.00 0.00 48 1024.9
20260502065840 63 154 0.0 3.0 0.00 0.00 0.00 49 1025.0
20260502065340 64 199 0.0 3.0 0.00 0.00 0.00 46 1025.0
20260502063840 62 63 1.0 4.0 0.00 0.00 0.00 50 1025.3
20260502063340 62 13 3.0 4.0 0.00 0.00 0.00 52 1025.1
20260502062839 61 47 0.0 2.0 0.00 0.00 0.00 55 1024.9
20260502062339 60 164 0.0 3.0 0.00 0.00 0.00 55 1024.9
20260502061340 58 92 0.0 2.0 0.00 0.00 0.00 58 1024.9
20260502060839 58 25 0.0 3.0 0.00 0.00 0.00 58 1025.1
20260502060353 56 173 1.0 3.0 0.00 0.00 0.00 62 1025.1
20260502055840 55 82 0.0 2.0 0.00 0.00 0.00 62 1025.1
20260502054854 55 109 0.0 2.0 0.00 0.00 0.00 63 1025.0
20260502054341 54 154 1.0 2.0 0.00 0.00 0.00 65 1025.2
20260502053353 53 100 1.0 2.0 0.00 0.00 0.00 65 1025.1
20260502052840 53 89 0.0 2.0 0.00 0.00 0.00 64 1025.1
20260502052354 53 99 2.0 2.0 0.00 0.00 0.00 64 1025.1
20260502051840 52 19 0.0 2.0 0.00 0.00 0.00 65 1024.8
20260502051340 53 132 0.0 2.0 0.00 0.00 0.00 64 1025.1
20260502050854 51 100 0.0 2.0 0.00 0.00 0.00 67 1024.9
20260502050340 50 37 0.0 2.0 0.00 0.00 0.00 67 1025.0
20260502045840 48 42 1.0 2.0 0.00 0.00 0.00 71 1024.9
20260502044840 47 62 0.0 2.0 0.00 0.00 0.00 72 1025.0
20260502044340 46 69 0.0 2.0 0.00 0.00 0.00 73 1024.8
20260502043841 45 44 1.0 2.0 0.00 0.00 0.00 76 1024.8
20260502043340 44 48 0.0 2.0 0.00 0.00 0.00 77 1024.8
20260502042853 43 33 0.0 2.0 0.00 0.00 0.00 80 1024.8
20260502042340 42 36 1.0 2.0 0.00 0.00 0.00 81 1024.7
20260502041840 41 54 0.0 2.0 0.00 0.00 0.00 84 1024.7
20260502041340 40 34 1.0 2.0 0.00 0.00 0.00 85 1024.7
20260502040841 39 39 2.0 2.0 0.00 0.00 0.00 86 1024.7
20260502040341 39 50 0.0 2.0 0.00 0.00 0.00 85 1024.9
20260502035840 39 50 0.0 2.0 0.00 0.00 0.00 85 1024.6
20260502035341 39 52 0.0 2.0 0.00 0.00 0.00 85 1024.8
20260502034840 39 38 0.0 2.0 0.00 0.00 0.00 85 1024.6
20260502034340 39 27 2.0 2.0 0.00 0.00 0.00 85 1024.7
20260502033840 39 64 1.0 2.0 0.00 0.00 0.00 85 1024.7
20260502033340 40 26 2.0 2.0 0.00 0.00 0.00 84 1024.5
20260502032840 40 26 2.0 2.0 0.00 0.00 0.00 84 1024.6
20260502032341 40 26 2.0 2.0 0.00 0.00 0.00 84 1024.5
20260502031840 40 26 2.0 2.0 0.00 0.00 0.00 84 1024.7
20260502031340 40 26 2.0 2.0 0.00 0.00 0.00 84 1024.7
20260502030354 40 25 1.0 2.0 0.00 0.00 0.00 84 1024.7
20260502025841 40 38 1.0 2.0 0.00 0.00 0.00 83 1024.6
20260502025341 40 34 2.0 2.0 0.00 0.00 0.00 83 1024.7
20260502024840 40 41 1.0 2.0 0.00 0.00 0.00 83 1024.5
20260502024341 41 34 1.0 2.0 0.00 0.00 0.00 82 1024.8
20260502023841 41 34 1.0 2.0 0.00 0.00 0.00 83 1024.7
20260502023340 41 26 1.0 2.0 0.00 0.00 0.00 83 1024.5
20260502022341 40 55 0.0 1.0 0.00 0.00 0.00 84 1024.9
20260502021854 41 95 0.0 1.0 0.00 0.00 0.00 84 1024.9
20260502021341 41 95 0.0 1.0 0.00 0.00 0.00 84 1024.7
20260502020840 41 24 0.0 1.0 0.00 0.00 0.00 82 1025.0
20260502020341 41 137 0.0 2.0 0.00 0.00 0.00 82 1024.7
20260502015840 41 132 1.0 2.0 0.00 0.00 0.00 82 1024.8
20260502015353 42 45 2.0 2.0 0.00 0.00 0.00 80 1024.8
20260502014840 42 43 2.0 3.0 0.00 0.00 0.00 80 1024.6
20260502014340 42 26 2.0 3.0 0.00 0.00 0.00 81 1025.1
20260502013840 42 7 1.0 3.0 0.00 0.00 0.00 81 1024.7
20260502013341 42 31 0.0 3.0 0.00 0.00 0.00 82 1024.7
20260502012840 43 23 0.0 2.0 0.00 0.00 0.00 79 1024.9
20260502012340 43 25 2.0 2.0 0.00 0.00 0.00 79 1024.7
20260502011841 42 46 1.0 2.0 0.00 0.00 0.00 81 1024.9
20260502011353 42 39 2.0 2.0 0.00 0.00 0.00 81 1024.8
20260502010841 42 34 1.0 2.0 0.00 0.00 0.00 82 1024.7
20260502005341 42 35 1.0 2.0 0.00 0.00 0.00 80 1024.7